Location: Goheenville
(40.9070°N, 79.3720°W)
Time: 06:33:09
(UTC-04:00)

Daily predictions for brighter satellites

Satellite Brightness Start Highest point End
(mag) Time Altitude Azimuth Time Altitude Azimuth Time Altitude Azimuth
Cosmos 1452 Rocket 4.0 20:59:04 10° SSE 21:03:53 38° ESE 21:08:43 10° NE
Cosmos 1782 3.1 21:00:39 10° N 21:04:36 50° E 21:08:32 10° SSE
Cosmos 1674 Rocket 3.8 21:02:16 10° N 21:06:40 55° E 21:11:00 10° SSE
Cosmos 1356 Rocket 3.7 21:02:57 10° SSW 21:07:11 76° W 21:11:30 10° N
Cosmos 1190 Rocket 4.0 21:02:08 10° NNW 21:07:20 75° ENE 21:12:32 10° SSE
ATLAS 5 CENTAUR R/B 2.9 21:02:49 10° NW 21:08:48 61° WSW 21:15:09 10° SSE
USA 186 2.4 21:08:25 10° S 21:11:31 58° W 21:14:48 10° NNW
Atlas Centaur 2 3.1 21:10:30 10° SW 21:12:34 14° S 21:14:35 10° SSE
SL-08 ROCKET BODY 4.4 21:08:59 10° S 21:15:00 82° E 21:20:57 10° N
CENTAUR R/B 3.8 21:07:58 10° NW 21:15:38 54° WSW 21:23:39 10° S
Resurs 01 Rocket 4.3 21:14:29 10° SW 21:17:31 18° W 21:20:35 10° NW
Nadezhda 3 Rocket 4.4 21:11:49 10° N 21:17:56 47° ENE 21:24:03 10° SSE
Meteor 2-6 Rocket 4.3 21:15:05 10° N 21:21:03 78° E 21:26:52 10° SSE
Cosmos 1939 Rocket 3.2 21:17:29 10° SSE 21:21:11 46° ENE 21:24:58 10° N
Cosmos 1242 Rocket 4.4 21:19:02 10° NNE 21:21:32 17° ENE 21:23:49 11° ESE
Cosmos 1184 Rocket 4.1 21:20:06 10° SSE 21:22:50 24° E 21:25:35 10° NE
ISS -3.4 21:19:58 10° SW 21:23:11 65° SE 21:26:26 10° ENE
Sich 1 Rocket 3.7 21:18:55 10° S 21:23:27 66° E 21:28:00 10° NNE
YAOGAN 6 4.4 21:21:31 10° ESE 21:23:46 16° ENE 21:26:02 10° NNE
Cosmos 1238 Rocket 3.5 21:21:58 10° NNE 21:24:58 30° E 21:28:10 11° SE
Cosmos 1408 3.3 21:21:51 10° SSE 21:25:10 33° E 21:28:28 10° NNE
SPOT 5 3.7 21:25:19 10° SE 21:30:14 41° ENE 21:35:15 10° N
COSMOS 2406 4.1 21:25:03 10° NW 21:30:32 48° WSW 21:35:59 10° S
Cosmos 1833 Rocket 4.4 21:27:37 10° N 21:31:36 19° NE 21:35:34 10° E
TIMED 4.5 21:30:58 10° SSW 21:35:20 85° ESE 21:39:44 10° NNE
Cosmos 2278 Rocket 2.3 21:29:57 10° S 21:35:29 58° ESE 21:41:04 10° NNE
Cosmos 1825 2.4 21:32:06 10° SSE 21:35:46 48° E 21:39:28 10° NNE
Cosmos 1844 Rocket 3.1 21:30:20 10° SSW 21:35:58 68° WNW 21:41:36 10° NNE
Coronas F rocket 4.4 21:34:57 10° SW 21:36:53 18° WNW 21:38:53 10° NNW
Cosmos 1975 Rocket 3.7 21:33:39 10° N 21:37:41 37° ENE 21:40:50 15° SE
Cosmos 2084 3.1 21:34:20 10° SSW 21:38:12 88° SE 21:42:03 10° NE
Cosmos 676 Rocket 4.0 21:32:59 10° NNW 21:38:13 85° ENE 21:43:24 10° SSE
Cosmos 1174 3.1 21:36:02 10° NNW 21:39:14 78° WSW 21:41:30 16° SSE
Cosmos 1844 3.9 21:35:14 10° SSW 21:41:00 84° WNW 21:46:51 10° NNE
BREEZE-M DEB (TANK) 3.6 21:39:36 10° W 21:41:26 25° SSW 21:43:47 13° SSE
Cosmos 1954 Rocket 4.0 21:36:59 10° NNW 21:42:12 71° ENE 21:46:48 13° SSE
Cosmos 2341 Rocket 4.1 21:38:40 10° S 21:44:51 62° E 21:51:02 10° NNE
Cosmos 1908 Rocket 3.6 21:42:51 10° S 21:47:15 87° W 21:51:43 10° N
Cosmos 1378 Rocket 3.4 21:44:05 10° N 21:48:25 78° E 21:52:23 12° SSE
COS B Rocket 3.1 21:44:38 10° N 21:48:39 73° E 21:51:57 12° S
Intercosmos 25 3.9 21:47:58 19° SE 21:49:43 29° E 21:52:32 10° NNE
SL-8 Rocket 4.4 21:49:49 12° SSE 21:55:20 44° E 22:01:12 10° NNE
Cosmos 2082 Rocket 3.1 21:50:15 10° N 21:55:28 35° ENE 21:58:58 18° ESE
Cosmos 962 Rocket 4.4 21:50:05 10° S 21:56:13 76° E 22:02:28 10° N
Cosmos 1741 Rocket 4.4 21:52:07 10° N 21:57:10 46° ENE 22:00:22 21° SE
Nimbus 7 Rocket 4.4 21:52:10 10° NNE 21:58:09 80° ESE 22:04:08 10° SSW
deb Chang Zheng 4 3.7 21:54:04 10° NNE 21:58:31 81° WNW 22:02:56 10° SSW
Timation 2 Rocket 4.0 21:54:12 10° NNW 22:00:09 63° ENE 22:04:13 21° SE
Cosmos 1023 Rocket 4.4 21:56:51 10° NNW 22:01:58 72° ENE 22:05:25 21° SSE
USA 245 3.8 22:05:04 28° ESE 22:06:22 40° ENE 22:10:16 10° N
GPS 2-05 Rocket1 3.7 22:03:08 10° WSW 22:06:33 35° S 22:07:26 30° SSE
EO 1 Delta rocket 4.4 22:00:44 10° N 22:06:48 77° WNW 22:11:43 10° SSW
Cosmos 2154 Rocket 4.4 22:03:41 10° SSW 22:09:51 67° W 22:16:02 10° N
Cosmos 2297 3.7 22:06:12 10° S 22:11:46 59° ESE 22:17:24 10° NNE
Envisat 3.6 22:09:02 10° S 22:13:58 56° W 22:18:59 10° NNW
Cosmos 1295 Rocket 4.5 22:07:45 10° S 22:14:03 76° E 22:20:19 10° N
Cosmos 1862 4.5 22:11:56 10° SSW 22:15:50 44° W 22:19:46 10° N
H-2A R/B 2.8 22:12:34 12° S 22:16:19 48° W 22:20:25 10° NNW
Cosmos 2151 Rocket 4.1 22:16:23 29° SE 22:18:03 42° E 22:22:19 10° NNE
NOAA 11 4.4 22:15:50 25° SE 22:18:53 56° ENE 22:24:17 10° N
CZ-3C R/B 4.0 22:03:48 10° WSW 22:19:39 20° SSW 22:23:29 16° S
COSMOS 2487 3.5 22:18:01 10° NNW 22:21:27 42° WSW 22:23:26 21° SSW
CZ-4 R/B 4.2 22:17:34 10° NNE 22:22:01 42° E 22:23:30 32° SE
APEX 3.5 22:18:41 10° SSW 22:22:32 89° WNW 22:27:40 10° NNE
Cosmos 614 Rocket 3.9 22:19:17 10° NNW 22:24:23 74° ENE 22:26:48 31° SSE
Cosmos 1420 Rocket 4.2 22:21:10 10° SSW 22:26:24 74° WNW 22:31:38 10° NNE
MetOp-B 4.3 22:25:27 21° S 22:29:08 72° WSW 22:34:30 10° NNW
BREEZE-M DEB (TANK) 4.2 22:30:57 10° NW 22:32:25 16° N 22:34:24 10° NE
CZ-4 SHROUD 4.0 22:32:36 34° SSW 22:33:30 46° W 22:36:31 10° NNW
PSLV R/B 4.2 22:33:20 31° SW 22:34:08 39° W 22:36:56 10° NNW
Cosmos 2366 rocket 4.0 22:32:20 24° S 22:36:17 67° E 22:42:35 10° NNE
Cosmos 1140 Rocket 4.0 22:31:38 10° NNW 22:36:40 55° WSW 22:39:36 24° S
Okean 1 Rocket 4.4 22:38:38 24° E 22:38:38 24° E 22:41:59 10° NE
USA 234 3.7 22:35:33 10° ENE 22:41:26 35° SE 22:43:02 31° SSE
CZ-4C R/B 3.7 22:41:21 43° E 22:41:51 46° ENE 22:45:49 10° N
Landsat 7 4.1 22:40:33 40° ESE 22:41:54 54° ENE 22:46:32 10° N
Cosmos 2369 Rocket 4.2 22:45:05 12° ENE 22:45:05 12° ENE 22:45:55 10° ENE
H-2A R/B 2.5 22:42:14 36° ESE 22:43:59 50° ENE 22:49:06 10° N
CZ-4B R/B 3.4 22:42:12 10° NNE 22:47:09 80° WNW 22:50:13 23° SSW
ARGOS 3.2 22:46:31 33° S 22:49:00 78° WSW 22:54:23 10° NNW
Okean 2 Rocket 4.5 22:45:43 10° SW 22:49:48 36° WNW 22:53:53 10° N
Timation 1 Rocket 4.3 22:46:57 29° S 22:50:01 60° ESE 22:55:56 10° NNE
SL-08 RB Rocket 3.7 22:49:27 44° S 22:50:54 85° WSW 22:55:34 10° NNW
Cosmos 1242 Rocket 4.4 22:53:26 10° NNW 22:56:36 27° W 22:58:03 21° SW
YAOGAN 6 4.2 22:56:00 23° SW 22:57:08 27° W 23:00:13 10° NW
Terra 2.0 22:56:47 48° ESE 22:57:36 54° ENE 23:02:16 10° N
OAO 3 Rocket 4.1 22:54:50 10° WSW 22:58:14 33° SSW 22:58:14 33° SSW
SPOT 1/Viking Rocket 4.1 22:57:08 29° SSW 22:59:34 54° W 23:04:41 10° NNW
ISS -0.7 22:57:15 10° WNW 22:59:52 22° NNW 23:02:29 10° NNE
Meteor 1-20 Rocket 4.1 23:01:01 43° S 23:02:51 74° E 23:08:21 10° NNE
Cosmos 2218 Rocket 4.4 23:00:21 17° SSW 23:05:22 64° W 23:11:44 10° N
Spot 4 4.0 23:11:30 54° E 23:12:02 57° ENE 23:16:48 10° N
CARTOSAT-1 3.4 23:15:43 83° SSE 23:15:53 88° ENE 23:20:13 10° NNW
Cosmos 1833 Rocket 2.8 23:10:28 10° NNW 23:16:03 68° WSW 23:17:28 49° S
AVUM R/B 4.1 23:12:34 10° NNW 23:15:23 52° NW 23:15:23 52° NW
Meteor 1-25 Rocket 4.4 23:15:15 32° SSW 23:18:04 71° W 23:23:54 10° N
Okean 1 3.3 23:14:46 10° N 23:18:36 78° N 23:18:36 78° N
DELTA 2 DEB (DPAF) 4.3 23:18:43 58° SW 23:19:15 63° WSW 23:23:42 10° NNW
Meteor 2-19 Rocket 4.5 23:16:38 35° SSW 23:19:25 77° W 23:25:34 10° N
Cosmos 1727 Rocket 4.2 23:13:52 10° NNW 23:19:59 66° W 23:22:24 38° SSW
Lacrosse 5 2.6 23:25:04 39° ENE 23:25:04 39° ENE 23:28:27 10° NE
USA 229 DEB 4.0 23:24:30 10° NW 23:31:28 58° WSW 23:33:32 43° S
USA 229 4.0 23:24:36 10° NW 23:31:34 59° WSW 23:33:38 44° S
Iridium 4 Rocket 4.1 23:29:00 10° N 23:34:45 51° E 23:35:10 50° E
ASTEX 1 3.3 23:33:00 10° N 23:37:59 88° W 23:38:12 82° SSW
BREEZE-M DEB (TANK) 4.1 23:32:20 10° WNW 23:38:18 28° WSW 23:38:18 28° WSW
Cosmos 2082 Rocket 3.3 23:34:25 10° NW 23:39:29 34° WSW 23:40:49 30° SW
Cosmos 1812 3.9 23:36:06 10° NNW 23:39:21 39° WNW 23:39:21 39° WNW
Cosmos 1503 Rocket 4.4 23:41:16 10° N 23:46:23 50° ENE 23:46:27 50° ENE
DMSP B5D2-2 4.5 23:41:34 10° N 23:46:41 58° WNW 23:48:00 44° WSW
Meteor 2-4 Rocket 3.9 23:42:42 10° N 23:48:02 52° ENE 23:48:06 52° E
NOSS 3-1 (A) 4.2 23:42:24 10° NNW 23:49:56 65° NE 23:52:37 44° ESE
Cosmos 1821 Rocket 3.8 23:52:02 68° SSE 23:52:51 81° E 23:59:05 10° N
Cosmos 1605 Rocket 4.4 23:53:28 48° E 23:53:39 48° E 23:59:46 10° NNE
